This demonstration page uses our WeatherBlox Daily Observations layout. Learn more.

Left ArrowRight Arrow

30.00354, -91.81873

Hourly Observations for August 19, 2022

Temp ( °F °C ) Dew Point ( °F °C ) Humidity (%) Winds ( mph kmh ) Pressure ( in mb ) Visibility ( mi km ) Precip ( " mm )
12:53 am 00:53 Clear 74 23.3 72 22.2 94 94 N 5 7 29.94 1014 10 16 0.00 0.00
1:53 am 01:53 Clear 75 23.9 72 22.2 90 90 Calm 29.93 1014 10 16 0.00 0.00
2:53 am 02:53 Clear 76 24.4 73 22.8 91 91 ENE 5 7 29.92 1013 10 16 0.00 0.00
3:53 am 03:53 Clear 75 23.9 73 22.8 94 94 Calm 29.91 1013 9 14 0.00 0.00
4:53 am 04:53 Mostly Clear 75 23.9 73 22.8 94 94 Calm 29.91 1013 9 14 0.00 0.00
5:09 am 05:09 Partly Cloudy with Nearby Thunderstorms 75 23.9 73 22.8 94 94 WSW 3 6 29.92 1013 8 13 0.00 0.00
5:20 am 05:20 Mostly Cloudy with Thunderstorms 75 23.9 73 22.8 94 94 S 5 7 29.92 1013 3 4 0.06 1.52
5:28 am 05:28 Cloudy with Strong Thunderstorms 75 23.9 73 22.8 94 94 W 7 11 29.93 1013 1 1 0.30 7.62
5:41 am 05:41 Cloudy with Thunderstorms 75 23.9 73 22.8 94 94 NW 13 20 29.93 1013 3 5 0.44 11.18
5:49 am 05:49 Cloudy with Strong Thunderstorms 75 24 72 22 89 89 NW 6 9 29.92 1013 3 4 0.52 13.21
5:53 am 05:53 Cloudy with Strong Thunderstorms 74 23.3 71 21.7 91 91 WNW 7 11 29.92 1013 2 3 0.56 14.22
6:02 am 06:02 Cloudy with Thunderstorms 74 23.3 71 21.7 91 91 WNW 5 7 29.92 1013 3 5 0.03 0.76
6:06 am 06:06 Cloudy with Thunderstorms 75 23.9 70 21.1 84 84 NW 6 9 29.92 1013 8 13 0.03 0.76
6:20 am 06:20 Cloudy with Strong Thunderstorms 75 23.9 70 21.1 84 84 VRB 6 9 29.94 1014 2 3 0.16 4.06
6:27 am 06:27 Cloudy with Nearby Thunderstorms 75 23.9 70 21.1 84 84 NW 9 15 29.94 1014 2 2 0.21 5.33
6:32 am 06:32 Cloudy with Heavy Rain 74 23.3 71 21.7 91 91 N 8 13 29.94 1014 2 3 0.31 7.87
6:39 am 06:39 Cloudy with Light Rain 74 23.3 71 21.7 91 91 VRB 3 6 29.95 1014 3 4 0.33 8.38
6:43 am 06:43 Cloudy with Nearby Thunderstorms 74 23.3 71 21.7 91 91 E 7 11 29.95 1014 7 11 0.33 8.38
6:53 am 06:53 Mostly Cloudy with Nearby Thunderstorms 74 23.3 71 21.7 91 91 Calm 29.96 1014 10 16 0.34 8.64
7:02 am 07:02 Mostly Cloudy with Thunderstorms 74 23.3 71 21.7 91 91 ESE 8 13 29.96 1014 10 16 0.01 0.13
7:17 am 07:17 Partly Cloudy with Nearby Thunderstorms 74 23.3 72 22.2 94 94 E 5 7 29.96 1014 10 16 0.01 0.25
7:26 am 07:26 Partly Cloudy with Light Rain 74 23.3 72 22.2 94 94 NE 5 7 29.95 1014 9 14 0.01 0.25
7:53 am 07:53 Mostly Cloudy with Light Rain 74 23.3 72 22.2 94 94 SE 3 6 29.95 1014 7 11 0.06 1.52
8:23 am 08:23 Mostly Cloudy 76 24.4 73 22.8 91 91 VRB 3 6 29.97 1015 10 16 0.01 0.13
8:53 am 08:53 Mostly Cloudy 76 24.4 73 22.8 91 91 Calm 29.98 1015 10 16 0.01 0.13
9:20 am 09:20 Cloudy with Rain 76 24.4 73 22.8 91 91 SE 6 9 29.99 1016 5 8 0.03 0.76
9:53 am 09:53 Cloudy with Light Rain 77 25 73 22.8 88 88 E 3 6 29.98 1015 10 16 0.05 1.27
10:53 am 10:53 Sunny 81 27.2 73 22.8 77 77 NNW 3 6 29.99 1016 10 16 0.01 0.13
11:53 am 11:53 Sunny 86 30 75 23.9 70 70 Calm 29.98 1015 10 16 0.00 0.00
12:53 pm 12:53 Mostly Sunny 86 30 75 23.9 70 70 SW 3 6 29.96 1015 10 16 0.00 0.00
1:53 pm 13:53 Partly Cloudy 89 31.7 75 23.9 63 63 Calm 29.94 1014 10 16 0.00 0.00
2:53 pm 14:53 Cloudy 86 30 74 23.3 67 67 SSE 3 6 29.94 1014 10 16 0.00 0.00
3:37 pm 15:37 Mostly Cloudy with Nearby Thunderstorms 78 25.6 73 22.8 85 85 S 18 30 29.96 1014 1 1 0.31 7.87
3:57 pm 15:57 Cloudy with Thunderstorms 79 26.1 70 21.1 74 74 ESE 9 15 29.97 1015 3 4 0.01 0.13
4:04 pm 16:04 Cloudy with Thunderstorms 77 25 71 21.7 82 82 ENE 7 11 29.96 1014 7 11 0.01 0.25
4:49 pm 16:49 Mostly Sunny 77 25 73 23 89 89 NE 9 15 29.95 1014 10 16 0.01 0.25
4:53 pm 16:53 Partly Cloudy with Light Rain 77 25 73 22.8 88 88 NNE 7 11 29.95 1014 10 16 0.01 0.25
5:02 pm 17:02 Mostly Cloudy with Nearby Thunderstorms 77 25 73 22.8 88 88 N 8 13 29.96 1014 10 16 0.01 0.13
5:30 pm 17:30 Partly Cloudy 78 25.6 74 23.3 87 87 Calm 29.95 1014 10 16 0.01 0.13
5:53 pm 17:53 Mostly Cloudy 78 25.6 74 23.3 87 87 WNW 7 11 29.96 1014 10 16 0.01 0.13
6:53 pm 18:53 Sunny 80 26.7 73 22.8 79 79 Calm 29.95 1014 10 16 0.00 0.00
7:53 pm 19:53 Clear 78 25.6 74 23.3 87 87 E 3 6 29.95 1014 10 16 0.00 0.00
8:53 pm 20:53 Clear 77 25 74 23.3 90 90 E 3 6 29.95 1014 10 16 0.00 0.00
9:53 pm 21:53 Clear 77 25 74 23.3 90 90 E 3 6 29.98 1015 10 16 0.00 0.00
10:53 pm 22:53 Clear 77 25 73 22.8 88 88 Calm 30.00 1016 10 16 0.00 0.00
11:53 pm 23:53 Partly Cloudy 76 24.4 74 23.3 94 94 Calm 30.00 1016 10 16 0.00 0.00

Powered by AerisWeather